Time,TemperatureF,DewpointF,PressureIn,WindDirection,WindDirectionDegrees,WindSpeedMPH,WindSpeedGustMPH,Humidity,HourlyPrecipIn,Conditions,Clouds,dailyrainin,SoftwareType,DateUTC
2013-07-27 00:03:00,62.9,48.8,30.13,NW,319,0.0,0.0,60,0.00,,---,0.00,VWS V14.00,2013-07-27 07:03:00,
2013-07-27 00:08:00,62.6,49.0,30.13,NW,319,0.0,1.0,61,0.00,,---,0.00,VWS V14.00,2013-07-27 07:08:00,
2013-07-27 00:13:00,62.3,48.7,30.13,NW,319,0.0,1.0,61,0.00,,---,0.00,VWS V14.00,2013-07-27 07:13:00,
2013-07-27 00:18:00,62.0,48.4,30.13,NW,319,0.0,1.0,61,0.00,,---,0.00,VWS V14.00,2013-07-27 07:18:00,
2013-07-27 00:23:00,61.6,48.5,30.13,NW,319,0.0,1.0,62,0.00,,---,0.00,VWS V14.00,2013-07-27 07:23:00,
2013-07-27 00:28:00,61.3,48.6,30.13,NW,319,0.0,1.0,63,0.00,,---,0.00,VWS V14.00,2013-07-27 07:28:00,
2013-07-27 00:33:00,61.0,48.8,30.13,NW,319,1.0,1.0,64,0.00,,---,0.00,VWS V14.00,2013-07-27 07:33:00,
2013-07-27 00:38:00,60.7,48.5,30.13,NW,319,0.0,1.0,64,0.00,,---,0.00,VWS V14.00,2013-07-27 07:38:00,
2013-07-27 00:43:00,60.4,48.2,30.13,NW,319,0.0,1.0,64,0.00,,---,0.00,VWS V14.00,2013-07-27 07:43:00,
2013-07-27 00:48:00,60.3,49.7,30.13,NW,319,0.0,1.0,68,0.00,,---,0.00,VWS V14.00,2013-07-27 07:48:00,
2013-07-27 00:53:00,60.1,48.7,30.13,NW,319,0.0,2.0,66,0.00,,---,0.00,VWS V14.00,2013-07-27 07:53:00,
2013-07-27 00:58:00,60.0,48.2,30.13,NW,319,0.0,2.0,65,0.00,,---,0.00,VWS V14.00,2013-07-27 07:58:00,
2013-07-27 01:03:00,59.9,48.1,30.13,NW,319,0.0,1.0,65,0.00,,---,0.00,VWS V14.00,2013-07-27 08:03:00,
2013-07-27 01:08:00,59.9,48.5,30.13,NW,319,0.0,1.0,66,0.00,,---,0.00,VWS V14.00,2013-07-27 08:08:00,
2013-07-27 01:13:00,59.7,48.3,30.14,NW,319,0.0,1.0,66,0.00,,---,0.00,VWS V14.00,2013-07-27 08:13:00,
2013-07-27 01:18:00,59.5,48.2,30.14,NW,319,1.0,1.0,66,0.00,,---,0.00,VWS V14.00,2013-07-27 08:18:00,
2013-07-27 01:23:00,59.4,48.5,30.14,NW,319,0.0,2.0,67,0.00,,---,0.00,VWS V14.00,2013-07-27 08:23:00,
2013-07-27 01:28:00,59.2,48.3,30.14,NW,319,0.0,2.0,67,0.00,,---,0.00,VWS V14.00,2013-07-27 08:28:00,
2013-07-27 01:33:00,59.1,48.2,30.14,NW,319,0.0,0.0,67,0.00,,---,0.00,VWS V14.00,2013-07-27 08:33:00,
2013-07-27 01:38:00,59.0,47.7,30.14,NW,319,0.0,0.0,66,0.00,,---,0.00,VWS V14.00,2013-07-27 08:38:00,
2013-07-27 01:43:00,58.9,48.0,30.14,NW,319,0.0,0.0,67,0.00,,---,0.00,VWS V14.00,2013-07-27 08:43:00,
2013-07-27 01:48:00,58.8,47.9,30.14,NW,319,0.0,0.0,67,0.00,,---,0.00,VWS V14.00,2013-07-27 08:48:00,
2013-07-27 01:53:00,58.6,48.1,30.14,NW,319,0.0,2.0,68,0.00,,---,0.00,VWS V14.00,2013-07-27 08:53:00,
2013-07-27 01:58:00,58.3,47.8,30.14,NW,319,1.0,2.0,68,0.00,,---,0.00,VWS V14.00,2013-07-27 08:58:00,
2013-07-27 02:03:00,58.0,47.5,30.14,NNW,331,1.0,2.0,68,0.00,,---,0.00,VWS V14.00,2013-07-27 09:03:00,
2013-07-27 02:08:00,57.8,47.3,30.14,NNW,331,1.0,2.0,68,0.00,,---,0.00,VWS V14.00,2013-07-27 09:08:00,
2013-07-27 02:13:00,57.7,47.2,30.14,NW,317,0.0,2.0,68,0.00,,---,0.00,VWS V14.00,2013-07-27 09:13:00,
2013-07-27 02:18:00,57.7,47.2,30.14,NW,319,1.0,2.0,68,0.00,,---,0.00,VWS V14.00,2013-07-27 09:18:00,
2013-07-27 02:23:00,57.7,47.2,30.14,NW,322,0.0,3.0,68,0.00,,---,0.00,VWS V14.00,2013-07-27 09:23:00,
2013-07-27 02:28:00,57.7,47.6,30.14,NW,314,1.0,3.0,69,0.00,,---,0.00,VWS V14.00,2013-07-27 09:28:00,
2013-07-27 02:33:00,57.7,46.8,30.14,NW,321,0.0,2.0,67,0.00,,---,0.00,VWS V14.00,2013-07-27 09:33:00,
2013-07-27 02:38:00,57.7,46.8,30.14,NW,321,0.0,2.0,67,0.00,,---,0.00,VWS V14.00,2013-07-27 09:38:00,
2013-07-27 02:43:00,57.6,46.7,30.14,NW,321,0.0,2.0,67,0.00,,---,0.00,VWS V14.00,2013-07-27 09:43:00,
2013-07-27 02:48:00,57.6,46.7,30.14,NW,321,0.0,2.0,67,0.00,,---,0.00,VWS V14.00,2013-07-27 09:48:00,
2013-07-27 02:53:00,57.5,46.6,30.14,NW,321,1.0,2.0,67,0.00,,---,0.00,VWS V14.00,2013-07-27 09:53:00,
2013-07-27 02:58:00,57.4,46.9,30.14,NW,321,0.0,2.0,68,0.00,,---,0.00,VWS V14.00,2013-07-27 09:58:00,
2013-07-27 03:03:00,57.2,46.4,30.14,NW,321,0.0,0.0,67,0.00,,---,0.00,VWS V14.00,2013-07-27 10:03:00,
2013-07-27 03:08:00,57.1,46.7,30.14,NW,321,0.0,1.0,68,0.00,,---,0.00,VWS V14.00,2013-07-27 10:08:00,
2013-07-27 03:13:00,57.0,46.6,30.14,NW,321,0.0,1.0,68,0.00,,---,0.00,VWS V14.00,2013-07-27 10:13:00,
2013-07-27 03:18:00,56.9,46.8,30.14,NW,321,0.0,1.0,69,0.00,,---,0.00,VWS V14.00,2013-07-27 10:18:00,
2013-07-27 03:23:00,56.8,46.4,30.14,NW,321,1.0,1.0,68,0.00,,---,0.00,VWS V14.00,2013-07-27 10:23:00,
2013-07-27 03:28:00,56.6,46.2,30.14,NW,321,1.0,2.0,68,0.00,,---,0.00,VWS V14.00,2013-07-27 10:28:00,
2013-07-27 03:33:00,56.6,46.6,30.14,NW,321,0.0,1.0,69,0.00,,---,0.00,VWS V14.00,2013-07-27 10:33:00,
2013-07-27 03:38:00,56.5,46.5,30.14,NW,321,0.0,2.0,69,0.00,,---,0.00,VWS V14.00,2013-07-27 10:38:00,
2013-07-27 03:43:00,56.4,46.0,30.14,NW,321,0.0,2.0,68,0.00,,---,0.00,VWS V14.00,2013-07-27 10:43:00,
2013-07-27 03:48:00,56.4,46.4,30.14,NW,321,0.0,2.0,69,0.00,,---,0.00,VWS V14.00,2013-07-27 10:48:00,
2013-07-27 03:53:00,56.3,46.3,30.14,NW,321,0.0,2.0,69,0.00,,---,0.00,VWS V14.00,2013-07-27 10:53:00,
2013-07-27 03:58:00,56.3,46.3,30.14,NW,321,0.0,2.0,69,0.00,,---,0.00,VWS V14.00,2013-07-27 10:58:00,
2013-07-27 04:03:00,56.2,45.8,30.14,NW,321,0.0,0.0,68,0.00,,---,0.00,VWS V14.00,2013-07-27 11:03:00,
2013-07-27 04:08:00,56.1,46.1,30.14,NW,321,0.0,0.0,69,0.00,,---,0.00,VWS V14.00,2013-07-27 11:08:00,
2013-07-27 04:13:00,56.1,46.1,30.14,NW,321,0.0,1.0,69,0.00,,---,0.00,VWS V14.00,2013-07-27 11:13:00,
2013-07-27 04:18:00,56.0,46.0,30.14,NW,325,0.0,3.0,69,0.00,,---,0.00,VWS V14.00,2013-07-27 11:18:00,
2013-07-27 04:23:00,56.0,46.0,30.14,NW,317,0.0,3.0,69,0.00,,---,0.00,VWS V14.00,2013-07-27 11:23:00,
2013-07-27 04:28:00,55.9,46.3,30.14,NW,315,1.0,3.0,70,0.00,,---,0.00,VWS V14.00,2013-07-27 11:28:00,
2013-07-27 04:33:00,55.9,46.3,30.14,NW,311,0.0,3.0,70,0.00,,---,0.00,VWS V14.00,2013-07-27 11:33:00,
2013-07-27 04:39:00,55.9,46.7,30.14,NNW,336,0.0,5.0,71,0.00,,---,0.00,VWS V14.00,2013-07-27 11:39:00,
2013-07-27 04:44:00,55.9,46.3,30.14,NW,321,0.0,5.0,70,0.00,,---,0.00,VWS V14.00,2013-07-27 11:44:00,
2013-07-27 04:49:00,55.9,46.7,30.14,NNW,330,0.0,5.0,71,0.00,,---,0.00,VWS V14.00,2013-07-27 11:49:00,
2013-07-27 04:54:00,55.9,46.7,30.15,NNW,330,1.0,5.0,71,0.00,,---,0.00,VWS V14.00,2013-07-27 11:54:00,
2013-07-27 04:59:00,55.9,47.0,30.15,NNW,346,0.0,5.0,72,0.00,,---,0.00,VWS V14.00,2013-07-27 11:59:00,
2013-07-27 05:04:00,55.8,46.9,30.15,NNW,332,1.0,3.0,72,0.00,,---,0.00,VWS V14.00,2013-07-27 12:04:00,
2013-07-27 05:09:00,55.8,46.9,30.15,NW,313,0.0,4.0,72,0.00,,---,0.00,VWS V14.00,2013-07-27 12:09:00,
2013-07-27 05:14:00,55.8,46.9,30.15,NNW,337,1.0,4.0,72,0.00,,---,0.00,VWS V14.00,2013-07-27 12:14:00,
2013-07-27 05:19:00,55.7,47.2,30.15,WNW,302,0.0,4.0,73,0.00,,---,0.00,VWS V14.00,2013-07-27 12:19:00,
2013-07-27 05:24:00,55.7,47.2,30.15,NW,304,4.0,4.0,73,0.00,,---,0.00,VWS V14.00,2013-07-27 12:24:00,
2013-07-27 05:29:00,55.6,47.1,30.15,NNW,331,1.0,5.0,73,0.00,,---,0.00,VWS V14.00,2013-07-27 12:29:00,
2013-07-27 05:34:00,55.5,47.0,30.15,WNW,287,2.0,3.0,73,0.00,,---,0.00,VWS V14.00,2013-07-27 12:34:00,
2013-07-27 05:39:00,55.5,47.0,30.15,NW,313,3.0,5.0,73,0.00,,---,0.00,VWS V14.00,2013-07-27 12:39:00,
2013-07-27 05:44:00,55.4,46.9,30.15,NW,319,2.0,5.0,73,0.00,,---,0.00,VWS V14.00,2013-07-27 12:44:00,
2013-07-27 05:49:00,55.3,47.2,30.15,NW,326,1.0,5.0,74,0.00,,---,0.00,VWS V14.00,2013-07-27 12:49:00,
2013-07-27 05:54:00,55.2,47.1,30.15,NW,326,0.0,5.0,74,0.00,,---,0.00,VWS V14.00,2013-07-27 12:54:00,
2013-07-27 05:59:00,55.1,47.3,30.16,NW,321,0.0,5.0,75,0.00,,---,0.00,VWS V14.00,2013-07-27 12:59:00,
2013-07-27 06:04:00,54.9,47.1,30.16,NNW,346,1.0,2.0,75,0.00,,---,0.00,VWS V14.00,2013-07-27 13:04:00,
2013-07-27 06:09:00,54.8,47.4,30.16,NNW,341,0.0,5.0,76,0.00,,---,0.00,VWS V14.00,2013-07-27 13:09:00,
2013-07-27 06:14:00,54.7,47.6,30.16,NW,315,1.0,5.0,77,0.00,,---,0.00,VWS V14.00,2013-07-27 13:14:00,
2013-07-27 06:19:00,54.7,47.6,30.16,North,5,2.0,5.0,77,0.00,,---,0.00,VWS V14.00,2013-07-27 13:19:00,
2013-07-27 06:24:00,54.7,47.6,30.16,NW,325,1.0,5.0,77,0.00,,---,0.00,VWS V14.00,2013-07-27 13:24:00,
2013-07-27 06:29:00,54.7,47.6,30.16,NW,323,0.0,5.0,77,0.00,,---,0.00,VWS V14.00,2013-07-27 13:29:00,
2013-07-27 06:34:00,54.6,47.5,30.16,NW,321,0.0,2.0,77,0.00,,---,0.00,VWS V14.00,2013-07-27 13:34:00,
2013-07-27 06:39:00,54.6,47.5,30.16,NNW,329,0.0,2.0,77,0.00,,---,0.00,VWS V14.00,2013-07-27 13:39:00,
2013-07-27 06:44:00,54.6,47.5,30.16,NNW,332,1.0,2.0,77,0.00,,---,0.00,VWS V14.00,2013-07-27 13:44:00,
2013-07-27 06:49:00,54.5,47.5,30.16,NNW,343,1.0,4.0,77,0.00,,---,0.00,VWS V14.00,2013-07-27 13:49:00,
2013-07-27 06:54:00,54.6,47.9,30.16,North,350,0.0,4.0,78,0.00,,---,0.00,VWS V14.00,2013-07-27 13:54:00,
2013-07-27 06:59:00,54.7,48.3,30.16,NNE,15,0.0,5.0,79,0.00,,---,0.00,VWS V14.00,2013-07-27 13:59:00,
2013-07-27 07:04:00,54.8,48.1,30.16,NW,304,2.0,2.0,78,0.00,,---,0.00,VWS V14.00,2013-07-27 14:04:00,
2013-07-27 07:09:00,54.9,48.2,30.16,NW,318,2.0,3.0,78,0.00,,---,0.00,VWS V14.00,2013-07-27 14:09:00,
2013-07-27 07:14:00,55.0,48.3,30.16,NNW,332,0.0,6.0,78,0.00,,---,0.00,VWS V14.00,2013-07-27 14:14:00,
2013-07-27 07:19:00,55.2,48.5,30.16,North,11,2.0,6.0,78,0.00,,---,0.00,VWS V14.00,2013-07-27 14:19:00,
2013-07-27 07:24:00,55.4,49.0,30.16,NNW,336,0.0,6.0,79,0.00,,---,0.00,VWS V14.00,2013-07-27 14:24:00,
2013-07-27 07:29:00,55.5,48.8,30.16,NNE,12,1.0,6.0,78,0.00,,---,0.00,VWS V14.00,2013-07-27 14:29:00,
2013-07-27 07:34:00,55.8,49.0,30.16,NW,322,1.0,2.0,78,0.00,,---,0.00,VWS V14.00,2013-07-27 14:34:00,
2013-07-27 07:39:00,56.0,48.9,30.16,NNE,17,1.0,6.0,77,0.00,,---,0.00,VWS V14.00,2013-07-27 14:39:00,
2013-07-27 07:44:00,56.2,49.1,30.16,North,360,0.0,7.0,77,0.00,,---,0.00,VWS V14.00,2013-07-27 14:44:00,
2013-07-27 07:49:00,56.4,49.3,30.16,ENE,67,1.0,7.0,77,0.00,,---,0.00,VWS V14.00,2013-07-27 14:49:00,
2013-07-27 07:54:00,56.6,49.1,30.16,NW,313,2.0,7.0,76,0.00,,---,0.00,VWS V14.00,2013-07-27 14:54:00,
2013-07-27 07:59:00,56.8,49.3,30.16,NW,314,2.0,7.0,76,0.00,,---,0.00,VWS V14.00,2013-07-27 14:59:00,
2013-07-27 08:04:00,57.2,49.4,30.16,NNW,342,1.0,4.0,75,0.00,,---,0.00,VWS V14.00,2013-07-27 15:04:00,
2013-07-27 08:09:00,57.5,49.7,30.16,NW,325,3.0,6.0,75,0.00,,---,0.00,VWS V14.00,2013-07-27 15:09:00,
2013-07-27 08:14:00,57.8,49.9,30.16,WNW,303,1.0,6.0,75,0.00,,---,0.00,VWS V14.00,2013-07-27 15:14:00,
2013-07-27 08:19:00,58.2,50.3,30.16,East,81,4.0,8.0,75,0.00,,---,0.00,VWS V14.00,2013-07-27 15:19:00,
2013-07-27 08:24:00,58.6,50.7,30.16,NNW,341,1.0,8.0,75,0.00,,---,0.00,VWS V14.00,2013-07-27 15:24:00,
2013-07-27 08:29:00,59.1,50.5,30.16,NNW,339,1.0,8.0,73,0.00,,---,0.00,VWS V14.00,2013-07-27 15:29:00,
2013-07-27 08:34:00,59.6,51.0,30.16,North,360,1.0,9.0,73,0.00,,---,0.00,VWS V14.00,2013-07-27 15:34:00,
2013-07-27 08:39:00,60.0,50.6,30.16,NW,308,2.0,9.0,71,0.00,,---,0.00,VWS V14.00,2013-07-27 15:39:00,
2013-07-27 08:44:00,60.3,50.1,30.16,NNW,338,3.0,9.0,69,0.00,,---,0.00,VWS V14.00,2013-07-27 15:44:00,
2013-07-27 08:49:00,60.6,50.4,30.16,East,80,1.0,9.0,69,0.00,,---,0.00,VWS V14.00,2013-07-27 15:49:00,
2013-07-27 08:54:00,61.0,51.2,30.16,NNW,331,4.0,9.0,70,0.00,,---,0.00,VWS V14.00,2013-07-27 15:54:00,
2013-07-27 08:59:00,61.3,50.7,30.16,NNW,332,3.0,9.0,68,0.00,,---,0.00,VWS V14.00,2013-07-27 15:59:00,
2013-07-27 09:04:00,61.7,50.2,30.16,NNW,333,2.0,6.0,66,0.00,,---,0.00,VWS V14.00,2013-07-27 16:04:00,
2013-07-27 09:09:00,62.1,51.0,30.16,NW,323,3.0,9.0,67,0.00,,---,0.00,VWS V14.00,2013-07-27 16:09:00,
2013-07-27 09:14:00,62.3,51.2,30.16,NNW,345,1.0,9.0,67,0.00,,---,0.00,VWS V14.00,2013-07-27 16:14:00,
2013-07-27 09:19:00,62.6,51.1,30.16,NW,323,1.0,9.0,66,0.00,,---,0.00,VWS V14.00,2013-07-27 16:19:00,
2013-07-27 09:24:00,63.0,50.7,30.15,NW,315,7.0,9.0,64,0.00,,---,0.00,VWS V14.00,2013-07-27 16:24:00,
2013-07-27 09:29:00,63.3,50.9,30.15,NW,315,5.0,9.0,64,0.00,,---,0.00,VWS V14.00,2013-07-27 16:29:00,
2013-07-27 09:34:00,63.5,51.1,30.15,ENE,69,7.0,7.0,64,0.00,,---,0.00,VWS V14.00,2013-07-27 16:34:00,
2013-07-27 09:39:00,63.7,50.9,30.15,NE,53,4.0,9.0,63,0.00,,---,0.00,VWS V14.00,2013-07-27 16:39:00,
2013-07-27 09:44:00,64.0,52.0,30.15,WNW,291,1.0,9.0,65,0.00,,---,0.00,VWS V14.00,2013-07-27 16:44:00,
2013-07-27 09:49:00,64.4,51.5,30.15,NNW,341,0.0,9.0,63,0.00,,---,0.00,VWS V14.00,2013-07-27 16:49:00,
2013-07-27 09:54:00,64.5,51.2,30.15,NW,322,4.0,10.0,62,0.00,,---,0.00,VWS V14.00,2013-07-27 16:54:00,
2013-07-27 09:59:00,64.7,51.4,30.15,ENE,65,2.0,10.0,62,0.00,,---,0.00,VWS V14.00,2013-07-27 16:59:00,
2013-07-27 10:04:00,65.0,51.7,30.15,NNE,25,2.0,7.0,62,0.00,,---,0.00,VWS V14.00,2013-07-27 17:04:00,
2013-07-27 10:09:00,65.4,52.5,30.15,NNW,340,3.0,7.0,63,0.00,,---,0.00,VWS V14.00,2013-07-27 17:09:00,
2013-07-27 10:14:00,65.6,51.8,30.15,NE,42,2.0,9.0,61,0.00,,---,0.00,VWS V14.00,2013-07-27 17:14:00,
2013-07-27 10:19:00,65.9,52.5,30.15,SE,129,0.0,9.0,62,0.00,,---,0.00,VWS V14.00,2013-07-27 17:19:00,
2013-07-27 10:24:00,66.4,53.4,30.15,NW,318,0.0,9.0,63,0.00,,---,0.00,VWS V14.00,2013-07-27 17:24:00,
2013-07-27 10:30:00,66.7,52.4,30.15,WSW,257,3.0,9.0,60,0.00,,---,0.00,VWS V14.00,2013-07-27 17:30:00,
2013-07-27 10:35:00,66.9,52.1,30.14,East,87,2.0,7.0,59,0.00,,---,0.00,VWS V14.00,2013-07-27 17:35:00,
2013-07-27 10:40:00,67.2,52.9,30.14,NW,323,1.0,7.0,60,0.00,,---,0.00,VWS V14.00,2013-07-27 17:40:00,
2013-07-27 10:45:00,67.6,51.8,30.14,NNW,333,4.0,8.0,57,0.00,,---,0.00,VWS V14.00,2013-07-27 17:45:00,
2013-07-27 10:50:00,67.7,52.9,30.14,East,94,0.0,8.0,59,0.00,,---,0.00,VWS V14.00,2013-07-27 17:50:00,
2013-07-27 10:55:00,68.0,54.1,30.14,WNW,300,5.0,8.0,61,0.00,,---,0.00,VWS V14.00,2013-07-27 17:55:00,
2013-07-27 11:00:00,68.2,52.4,30.14,North,349,1.0,8.0,57,0.00,,---,0.00,VWS V14.00,2013-07-27 18:00:00,
2013-07-27 11:05:00,68.6,50.8,30.14,SSE,153,0.0,5.0,53,0.00,,---,0.00,VWS V14.00,2013-07-27 18:05:00,
2013-07-27 11:10:00,69.0,52.2,30.14,NW,320,2.0,5.0,55,0.00,,---,0.00,VWS V14.00,2013-07-27 18:10:00,
2013-07-27 11:15:00,69.4,52.5,30.13,ESE,109,1.0,7.0,55,0.00,,---,0.00,VWS V14.00,2013-07-27 18:15:00,
2013-07-27 11:20:00,69.8,53.4,30.13,WNW,303,3.0,7.0,56,0.00,,---,0.00,VWS V14.00,2013-07-27 18:20:00,
2013-07-27 11:25:00,70.2,52.8,30.13,SW,226,1.0,7.0,54,0.00,,---,0.00,VWS V14.00,2013-07-27 18:25:00,
2013-07-27 11:30:00,70.6,52.7,30.13,NW,320,0.0,8.0,53,0.00,,---,0.00,VWS V14.00,2013-07-27 18:30:00,
2013-07-27 11:35:00,70.8,50.2,30.13,NNW,333,3.0,10.0,48,0.00,,---,0.00,VWS V14.00,2013-07-27 18:35:00,
2013-07-27 11:40:00,70.9,51.3,30.12,WNW,288,6.0,10.0,50,0.00,,---,0.00,VWS V14.00,2013-07-27 18:40:00,
2013-07-27 11:45:00,71.0,50.3,30.13,NNW,337,3.0,10.0,48,0.00,,---,0.00,VWS V14.00,2013-07-27 18:45:00,
2013-07-27 11:50:00,71.2,50.5,30.12,WNW,300,2.0,10.0,48,0.00,,---,0.00,VWS V14.00,2013-07-27 18:50:00,
2013-07-27 11:55:00,71.5,50.8,30.12,WNW,288,3.0,10.0,48,0.00,,---,0.00,VWS V14.00,2013-07-27 18:55:00,
2013-07-27 12:00:00,71.8,51.1,30.12,WNW,284,3.0,10.0,48,0.00,,---,0.00,VWS V14.00,2013-07-27 19:00:00,
2013-07-27 12:05:00,72.3,50.4,30.12,NE,50,3.0,4.0,46,0.00,,---,0.00,VWS V14.00,2013-07-27 19:05:00,
2013-07-27 12:10:00,72.6,50.1,30.12,NNW,341,1.0,6.0,45,0.00,,---,0.00,VWS V14.00,2013-07-27 19:10:00,
2013-07-27 12:15:00,72.9,49.7,30.11,NNW,329,1.0,8.0,44,0.00,,---,0.00,VWS V14.00,2013-07-27 19:15:00,
2013-07-27 12:20:00,73.1,49.9,30.11,NW,306,2.0,8.0,44,0.00,,---,0.00,VWS V14.00,2013-07-27 19:20:00,
2013-07-27 12:25:00,73.0,51.6,30.11,NE,54,2.0,8.0,47,0.00,,---,0.00,VWS V14.00,2013-07-27 19:25:00,
2013-07-27 12:30:00,73.1,50.5,30.11,North,355,4.0,8.0,45,0.00,,---,0.00,VWS V14.00,2013-07-27 19:30:00,
2013-07-27 12:35:00,73.5,51.5,30.11,North,5,3.0,7.0,46,0.00,,---,0.00,VWS V14.00,2013-07-27 19:35:00,
2013-07-27 12:40:00,74.1,51.4,30.10,NE,36,3.0,7.0,45,0.00,,---,0.00,VWS V14.00,2013-07-27 19:40:00,
2013-07-27 12:45:00,74.4,51.7,30.10,WNW,292,1.0,7.0,45,0.00,,---,0.00,VWS V14.00,2013-07-27 19:45:00,
2013-07-27 12:50:00,74.7,50.1,30.10,SSW,192,1.0,7.0,42,0.00,,---,0.00,VWS V14.00,2013-07-27 19:50:00,
2013-07-27 12:55:00,75.0,49.7,30.10,NW,325,2.0,7.0,41,0.00,,---,0.00,VWS V14.00,2013-07-27 19:55:00,
2013-07-27 13:00:00,74.9,49.6,30.10,WNW,289,2.0,7.0,41,0.00,,---,0.00,VWS V14.00,2013-07-27 20:00:00,
2013-07-27 13:05:00,75.1,49.2,30.10,NW,323,1.0,10.0,40,0.00,,---,0.00,VWS V14.00,2013-07-27 20:05:00,
2013-07-27 13:10:00,75.3,48.7,30.09,NNW,339,2.0,10.0,39,0.00,,---,0.00,VWS V14.00,2013-07-27 20:10:00,
2013-07-27 13:15:00,75.5,50.8,30.09,NNE,19,3.0,10.0,42,0.00,,---,0.00,VWS V14.00,2013-07-27 20:15:00,
2013-07-27 13:20:00,75.9,51.8,30.09,NNE,12,0.0,10.0,43,0.00,,---,0.00,VWS V14.00,2013-07-27 20:20:00,
2013-07-27 13:25:00,76.2,46.6,30.09,ENE,59,5.0,10.0,35,0.00,,---,0.00,VWS V14.00,2013-07-27 20:25:00,
2013-07-27 13:30:00,76.2,47.3,30.09,WNW,284,2.0,10.0,36,0.00,,---,0.00,VWS V14.00,2013-07-27 20:30:00,
2013-07-27 13:35:00,76.3,48.1,30.08,NNW,343,2.0,6.0,37,0.00,,---,0.00,VWS V14.00,2013-07-27 20:35:00,
2013-07-27 13:40:00,76.5,48.3,30.08,NE,54,2.0,6.0,37,0.00,,---,0.00,VWS V14.00,2013-07-27 20:40:00,
2013-07-27 13:45:00,76.8,50.0,30.08,NE,39,2.0,6.0,39,0.00,,---,0.00,VWS V14.00,2013-07-27 20:45:00,
2013-07-27 13:50:00,76.9,47.9,30.08,North,360,3.0,9.0,36,0.00,,---,0.00,VWS V14.00,2013-07-27 20:50:00,
2013-07-27 13:55:00,77.1,48.8,30.08,SSW,200,1.0,9.0,37,0.00,,---,0.00,VWS V14.00,2013-07-27 20:55:00,
2013-07-27 14:00:00,77.4,49.8,30.08,NW,309,3.0,11.0,38,0.00,,---,0.00,VWS V14.00,2013-07-27 21:00:00,
2013-07-27 14:05:00,77.6,52.1,30.07,NE,46,2.0,4.0,41,0.00,,---,0.00,VWS V14.00,2013-07-27 21:05:00,
2013-07-27 14:10:00,77.8,48.7,30.07,NNE,19,0.0,9.0,36,0.00,,---,0.00,VWS V14.00,2013-07-27 21:10:00,
2013-07-27 14:15:00,77.8,48.0,30.07,West,271,3.0,9.0,35,0.00,,---,0.00,VWS V14.00,2013-07-27 21:15:00,
2013-07-27 14:20:00,78.1,53.8,30.07,NNE,16,1.0,9.0,43,0.00,,---,0.00,VWS V14.00,2013-07-27 21:20:00,
2013-07-27 14:25:00,78.7,49.5,30.07,NNE,29,0.0,9.0,36,0.00,,---,0.00,VWS V14.00,2013-07-27 21:25:00,
2013-07-27 14:30:00,78.9,49.0,30.06,NNW,338,3.0,9.0,35,0.00,,---,0.00,VWS V14.00,2013-07-27 21:30:00,
2013-07-27 14:35:00,78.8,49.6,30.06,NW,320,3.0,8.0,36,0.00,,---,0.00,VWS V14.00,2013-07-27 21:35:00,
2013-07-27 14:41:00,78.7,48.8,30.06,NW,325,1.0,8.0,35,0.00,,---,0.00,VWS V14.00,2013-07-27 21:41:00,
2013-07-27 14:46:00,78.9,49.0,30.06,North,5,0.0,8.0,35,0.00,,---,0.00,VWS V14.00,2013-07-27 21:46:00,
2013-07-27 14:51:00,79.1,50.6,30.06,NE,37,1.0,8.0,37,0.00,,---,0.00,VWS V14.00,2013-07-27 21:51:00,
2013-07-27 14:56:00,79.4,50.2,30.05,ENE,68,3.0,8.0,36,0.00,,---,0.00,VWS V14.00,2013-07-27 21:56:00,
2013-07-27 15:01:00,79.7,50.4,30.05,SSE,167,2.0,8.0,36,0.00,,---,0.00,VWS V14.00,2013-07-27 22:01:00,
2013-07-27 15:06:00,79.8,48.2,30.05,NNW,340,3.0,9.0,33,0.00,,---,0.00,VWS V14.00,2013-07-27 22:06:00,
2013-07-27 15:11:00,79.6,48.0,30.05,NW,321,0.0,9.0,33,0.00,,---,0.00,VWS V14.00,2013-07-27 22:11:00,
2013-07-27 15:16:00,79.9,49.8,30.04,North,5,4.0,9.0,35,0.00,,---,0.00,VWS V14.00,2013-07-27 22:16:00,
2013-07-27 15:21:00,80.1,49.2,30.05,NW,325,2.0,9.0,34,0.00,,---,0.00,VWS V14.00,2013-07-27 22:21:00,
2013-07-27 15:26:00,80.3,49.4,30.04,NW,324,3.0,9.0,34,0.00,,---,0.00,VWS V14.00,2013-07-27 22:26:00,
2013-07-27 15:31:00,80.7,49.8,30.04,WNW,301,6.0,9.0,34,0.00,,---,0.00,VWS V14.00,2013-07-27 22:31:00,
2013-07-27 15:36:00,80.7,47.3,30.04,WSW,254,7.0,9.0,31,0.00,,---,0.00,VWS V14.00,2013-07-27 22:36:00,
2013-07-27 15:41:00,80.7,50.5,30.04,NW,319,3.0,9.0,35,0.00,,---,0.00,VWS V14.00,2013-07-27 22:41:00,
2013-07-27 15:46:00,80.6,48.9,30.03,NNW,348,12.0,12.0,33,0.00,,---,0.00,VWS V14.00,2013-07-27 22:46:00,
2013-07-27 15:51:00,80.6,50.5,30.03,NW,324,4.0,12.0,35,0.00,,---,0.00,VWS V14.00,2013-07-27 22:51:00,
2013-07-27 15:56:00,80.7,51.3,30.03,NE,40,2.0,12.0,36,0.00,,---,0.00,VWS V14.00,2013-07-27 22:56:00,
2013-07-27 16:01:00,80.9,48.3,30.03,SW,218,4.0,12.0,32,0.00,,---,0.00,VWS V14.00,2013-07-27 23:01:00,
2013-07-27 16:06:00,80.9,51.5,30.03,West,271,3.0,5.0,36,0.00,,---,0.00,VWS V14.00,2013-07-27 23:06:00,
2013-07-27 16:11:00,80.9,50.7,30.02,NNW,341,2.0,6.0,35,0.00,,---,0.00,VWS V14.00,2013-07-27 23:11:00,
2013-07-27 16:16:00,81.1,51.7,30.02,NW,309,5.0,6.0,36,0.00,,---,0.00,VWS V14.00,2013-07-27 23:16:00,
2013-07-27 16:21:00,81.3,51.8,30.02,ESE,116,0.0,6.0,36,0.00,,---,0.00,VWS V14.00,2013-07-27 23:21:00,
2013-07-27 16:26:00,81.4,50.4,30.02,NNE,14,1.0,6.0,34,0.00,,---,0.00,VWS V14.00,2013-07-27 23:26:00,
2013-07-27 16:31:00,81.0,50.0,30.02,WNW,302,2.0,6.0,34,0.00,,---,0.00,VWS V14.00,2013-07-27 23:31:00,
2013-07-27 16:36:00,81.1,51.7,30.01,NNW,348,1.0,6.0,36,0.00,,---,0.00,VWS V14.00,2013-07-27 23:36:00,
2013-07-27 16:41:00,81.4,49.6,30.02,NNW,333,5.0,6.0,33,0.00,,---,0.00,VWS V14.00,2013-07-27 23:41:00,
2013-07-27 16:47:00,81.2,51.0,30.01,WNW,298,3.0,7.0,35,0.00,,---,0.00,VWS V14.00,2013-07-27 23:47:00,
2013-07-27 16:52:00,81.0,50.0,30.01,WNW,302,1.0,10.0,34,0.00,,---,0.00,VWS V14.00,2013-07-27 23:52:00,
2013-07-27 16:57:00,81.0,50.8,30.01,NNW,327,7.0,11.0,35,0.00,,---,0.00,VWS V14.00,2013-07-27 23:57:00,
2013-07-27 17:02:00,80.5,51.1,30.01,NW,323,2.0,11.0,36,0.00,,---,0.00,VWS V14.00,2013-07-28 00:02:00,
2013-07-27 17:07:00,80.9,50.7,30.00,NW,313,1.0,6.0,35,0.00,,---,0.00,VWS V14.00,2013-07-28 00:07:00,
2013-07-27 17:12:00,81.2,51.7,30.00,West,261,4.0,7.0,36,0.00,,---,0.00,VWS V14.00,2013-07-28 00:12:00,
2013-07-27 17:17:00,81.4,51.2,30.00,NNW,331,1.0,7.0,35,0.00,,---,0.00,VWS V14.00,2013-07-28 00:17:00,
2013-07-27 17:22:00,81.6,51.3,30.00,NW,313,3.0,7.0,35,0.00,,---,0.00,VWS V14.00,2013-07-28 00:22:00,
2013-07-27 17:27:00,81.4,50.4,30.00,NNE,17,1.0,10.0,34,0.00,,---,0.00,VWS V14.00,2013-07-28 00:27:00,
2013-07-27 17:32:00,81.4,51.9,30.00,NNE,20,1.0,1.0,36,0.00,,---,0.00,VWS V14.00,2013-07-28 00:32:00,
2013-07-27 17:37:00,81.4,51.2,30.00,NW,314,2.0,7.0,35,0.00,,---,0.00,VWS V14.00,2013-07-28 00:37:00,
2013-07-27 17:42:00,81.2,53.2,30.00,NNW,338,1.0,7.0,38,0.00,,---,0.00,VWS V14.00,2013-07-28 00:42:00,
2013-07-27 17:47:00,81.1,50.9,29.99,NNE,17,1.0,9.0,35,0.00,,---,0.00,VWS V14.00,2013-07-28 00:47:00,
2013-07-27 17:52:00,80.8,50.6,29.99,NW,326,3.0,9.0,35,0.00,,---,0.00,VWS V14.00,2013-07-28 00:52:00,
2013-07-27 17:57:00,80.7,51.3,29.99,NW,306,2.0,9.0,36,0.00,,---,0.00,VWS V14.00,2013-07-28 00:57:00,
2013-07-27 18:02:00,80.6,52.0,29.99,West,272,3.0,5.0,37,0.00,,---,0.00,VWS V14.00,2013-07-28 01:02:00,
2013-07-27 18:07:00,80.5,50.4,29.99,NNW,327,0.0,7.0,35,0.00,,---,0.00,VWS V14.00,2013-07-28 01:07:00,
2013-07-27 18:12:00,80.3,52.4,29.99,NNW,341,1.0,7.0,38,0.00,,---,0.00,VWS V14.00,2013-07-28 01:12:00,
2013-07-27 18:17:00,80.2,51.6,29.98,NNW,327,2.0,7.0,37,0.00,,---,0.00,VWS V14.00,2013-07-28 01:17:00,
2013-07-27 18:22:00,80.1,52.9,29.98,East,87,1.0,7.0,39,0.00,,---,0.00,VWS V14.00,2013-07-28 01:22:00,
2013-07-27 18:27:00,80.2,52.3,29.98,NNE,17,2.0,7.0,38,0.00,,---,0.00,VWS V14.00,2013-07-28 01:27:00,
2013-07-27 18:32:00,80.3,53.1,29.98,NW,304,0.0,1.0,39,0.00,,---,0.00,VWS V14.00,2013-07-28 01:32:00,
2013-07-27 18:37:00,80.0,52.8,29.98,SW,235,3.0,5.0,39,0.00,,---,0.00,VWS V14.00,2013-07-28 01:37:00,
2013-07-27 18:42:00,79.4,51.6,29.98,North,5,3.0,5.0,38,0.00,,---,0.00,VWS V14.00,2013-07-28 01:42:00,
2013-07-27 18:47:00,79.0,55.2,29.98,NE,48,3.0,5.0,44,0.00,,---,0.00,VWS V14.00,2013-07-28 01:47:00,
2013-07-27 18:52:00,78.2,53.9,29.98,NW,315,4.0,6.0,43,0.00,,---,0.00,VWS V14.00,2013-07-28 01:52:00,
2013-07-27 18:57:00,77.8,54.2,29.98,NW,320,2.0,6.0,44,0.00,,---,0.00,VWS V14.00,2013-07-28 01:57:00,
2013-07-27 19:02:00,77.6,54.0,29.98,NNW,342,0.0,1.0,44,0.00,,---,0.00,VWS V14.00,2013-07-28 02:02:00,
2013-07-27 19:07:00,77.3,54.9,29.98,North,5,1.0,4.0,46,0.00,,---,0.00,VWS V14.00,2013-07-28 02:07:00,
2013-07-27 19:12:00,76.9,55.2,29.97,South,182,2.0,4.0,47,0.00,,---,0.00,VWS V14.00,2013-07-28 02:12:00,
2013-07-27 19:17:00,76.4,54.1,29.98,NNW,345,4.0,4.0,46,0.00,,---,0.00,VWS V14.00,2013-07-28 02:17:00,
2013-07-27 19:22:00,76.0,54.3,29.98,NNE,18,1.0,5.0,47,0.00,,---,0.00,VWS V14.00,2013-07-28 02:22:00,
2013-07-27 19:27:00,75.6,55.7,29.98,North,5,0.0,5.0,50,0.00,,---,0.00,VWS V14.00,2013-07-28 02:27:00,
2013-07-27 19:32:00,75.2,54.8,29.98,North,5,3.0,4.0,49,0.00,,---,0.00,VWS V14.00,2013-07-28 02:32:00,
2013-07-27 19:37:00,74.8,56.0,29.98,East,82,0.0,4.0,52,0.00,,---,0.00,VWS V14.00,2013-07-28 02:37:00,
2013-07-27 19:42:00,74.5,55.2,29.98,NW,319,0.0,6.0,51,0.00,,---,0.00,VWS V14.00,2013-07-28 02:42:00,
2013-07-27 19:47:00,74.1,54.3,29.98,NNW,333,1.0,6.0,50,0.00,,---,0.00,VWS V14.00,2013-07-28 02:47:00,
2013-07-27 19:52:00,73.7,57.0,29.98,WNW,296,2.0,6.0,56,0.00,,---,0.00,VWS V14.00,2013-07-28 02:52:00,
2013-07-27 19:57:00,73.1,54.5,29.98,North,350,1.0,6.0,52,0.00,,---,0.00,VWS V14.00,2013-07-28 02:57:00,
2013-07-27 20:02:00,72.7,54.6,29.98,North,5,0.0,0.0,53,0.00,,---,0.00,VWS V14.00,2013-07-28 03:02:00,
2013-07-27 20:07:00,72.3,54.7,29.98,NNE,32,1.0,2.0,54,0.00,,---,0.00,VWS V14.00,2013-07-28 03:07:00,
2013-07-27 20:13:00,71.9,55.4,29.99,WNW,298,1.0,2.0,56,0.00,,---,0.00,VWS V14.00,2013-07-28 03:13:00,
2013-07-27 20:18:00,71.4,54.9,29.98,NNW,336,1.0,2.0,56,0.00,,---,0.00,VWS V14.00,2013-07-28 03:18:00,
2013-07-27 20:23:00,70.9,54.9,29.98,NNW,338,0.0,5.0,57,0.00,,---,0.00,VWS V14.00,2013-07-28 03:23:00,
2013-07-27 20:28:00,70.4,55.9,29.99,NNE,18,0.0,5.0,60,0.00,,---,0.00,VWS V14.00,2013-07-28 03:28:00,
2013-07-27 20:33:00,70.0,55.0,29.99,NNE,12,0.0,0.0,59,0.00,,---,0.00,VWS V14.00,2013-07-28 03:33:00,
2013-07-27 20:38:00,69.5,54.6,29.99,NNE,19,0.0,1.0,59,0.00,,---,0.00,VWS V14.00,2013-07-28 03:38:00,
2013-07-27 20:43:00,69.0,53.6,29.99,NNE,19,0.0,1.0,58,0.00,,---,0.00,VWS V14.00,2013-07-28 03:43:00,
2013-07-27 20:48:00,68.5,54.1,29.99,NNE,19,0.0,1.0,60,0.00,,---,0.00,VWS V14.00,2013-07-28 03:48:00,
2013-07-27 20:53:00,68.0,53.6,29.99,NNE,19,0.0,1.0,60,0.00,,---,0.00,VWS V14.00,2013-07-28 03:53:00,
2013-07-27 20:58:00,67.6,53.2,29.99,NNE,19,0.0,1.0,60,0.00,,---,0.00,VWS V14.00,2013-07-28 03:58:00,
2013-07-27 21:01:00,67.3,53.4,29.99,NNE,19,0.0,1.0,61,0.00,,---,0.00,VWS V14.00,2013-07-28 04:01:00,
2013-07-27 21:02:00,67.2,53.3,29.99,NNE,19,0.0,1.0,61,0.00,,---,0.00,VWS V14.00,2013-07-28 04:02:00,
2013-07-27 21:07:00,66.8,53.4,30.00,NNE,19,0.0,1.0,62,0.00,,---,0.00,VWS V14.00,2013-07-28 04:07:00,
2013-07-27 21:12:00,66.4,52.6,30.00,NNE,19,0.0,1.0,61,0.00,,---,0.00,VWS V14.00,2013-07-28 04:12:00,
2013-07-27 21:17:00,66.1,53.6,30.00,West,261,0.0,2.0,64,0.00,,---,0.00,VWS V14.00,2013-07-28 04:17:00,
2013-07-27 21:22:00,65.8,52.9,30.00,West,261,0.0,2.0,63,0.00,,---,0.00,VWS V14.00,2013-07-28 04:22:00,
2013-07-27 21:27:00,65.5,53.0,30.00,West,261,0.0,2.0,64,0.00,,---,0.00,VWS V14.00,2013-07-28 04:27:00,
2013-07-27 21:32:00,65.2,53.6,30.01,West,261,0.0,2.0,66,0.00,,---,0.00,VWS V14.00,2013-07-28 04:32:00,
2013-07-27 21:37:00,65.0,53.0,30.01,West,261,0.0,0.0,65,0.00,,---,0.00,VWS V14.00,2013-07-28 04:37:00,
2013-07-27 21:42:00,64.6,53.4,30.01,West,261,0.0,0.0,67,0.00,,---,0.00,VWS V14.00,2013-07-28 04:42:00,
2013-07-27 21:47:00,64.1,52.5,30.01,NW,326,1.0,1.0,66,0.00,,---,0.00,VWS V14.00,2013-07-28 04:47:00,
2013-07-27 21:52:00,63.7,52.5,30.01,NNE,17,0.0,2.0,67,0.00,,---,0.00,VWS V14.00,2013-07-28 04:52:00,
2013-07-27 21:57:00,63.3,52.2,30.01,NNE,17,0.0,2.0,67,0.00,,---,0.00,VWS V14.00,2013-07-28 04:57:00,
2013-07-27 22:02:00,62.9,52.2,30.01,NNE,17,0.0,0.0,68,0.00,,---,0.00,VWS V14.00,2013-07-28 05:02:00,
2013-07-27 22:07:00,62.6,52.3,30.01,NNE,17,0.0,0.0,69,0.00,,---,0.00,VWS V14.00,2013-07-28 05:07:00,
2013-07-27 22:12:00,62.3,52.4,30.02,NNE,17,0.0,0.0,70,0.00,,---,0.00,VWS V14.00,2013-07-28 05:12:00,
2013-07-27 22:17:00,62.0,52.1,30.02,NNE,17,0.0,0.0,70,0.00,,---,0.00,VWS V14.00,2013-07-28 05:17:00,
2013-07-27 22:22:00,61.8,52.3,30.02,NNE,17,0.0,0.0,71,0.00,,---,0.00,VWS V14.00,2013-07-28 05:22:00,
2013-07-27 22:27:00,61.5,52.4,30.02,NNE,17,0.0,0.0,72,0.00,,---,0.00,VWS V14.00,2013-07-28 05:27:00,
2013-07-27 22:32:00,61.2,52.5,30.02,NNE,17,0.0,0.0,73,0.00,,---,0.00,VWS V14.00,2013-07-28 05:32:00,
2013-07-27 22:37:00,60.9,51.8,30.02,NNE,17,0.0,0.0,72,0.00,,---,0.00,VWS V14.00,2013-07-28 05:37:00,
2013-07-27 22:42:00,60.6,51.9,30.02,NNE,17,0.0,1.0,73,0.00,,---,0.00,VWS V14.00,2013-07-28 05:42:00,
2013-07-27 22:47:00,60.3,51.6,30.02,NNE,17,0.0,1.0,73,0.00,,---,0.00,VWS V14.00,2013-07-28 05:47:00,
2013-07-27 22:52:00,60.0,51.3,30.02,NNW,334,0.0,1.0,73,0.00,,---,0.00,VWS V14.00,2013-07-28 05:52:00,
2013-07-27 22:57:00,59.8,51.5,30.02,NNE,18,0.0,1.0,74,0.00,,---,0.00,VWS V14.00,2013-07-28 05:57:00,
2013-07-27 23:02:00,59.6,51.3,30.02,North,355,0.0,0.0,74,0.00,,---,0.00,VWS V14.00,2013-07-28 06:02:00,
2013-07-27 23:07:00,59.4,51.1,30.02,North,355,0.0,0.0,74,0.00,,---,0.00,VWS V14.00,2013-07-28 06:07:00,
2013-07-27 23:12:00,59.2,51.3,30.02,North,355,0.0,1.0,75,0.00,,---,0.00,VWS V14.00,2013-07-28 06:12:00,
2013-07-27 23:17:00,59.1,51.5,30.03,North,355,0.0,1.0,76,0.00,,---,0.00,VWS V14.00,2013-07-28 06:17:00,
2013-07-27 23:22:00,58.9,51.7,30.02,North,355,0.0,1.0,77,0.00,,---,0.00,VWS V14.00,2013-07-28 06:22:00,
2013-07-27 23:27:00,58.8,51.3,30.02,North,355,0.0,1.0,76,0.00,,---,0.00,VWS V14.00,2013-07-28 06:27:00,
2013-07-27 23:32:00,58.7,51.9,30.03,North,355,0.0,0.0,78,0.00,,---,0.00,VWS V14.00,2013-07-28 06:32:00,
2013-07-27 23:37:00,58.6,52.1,30.03,North,355,0.0,0.0,79,0.00,,---,0.00,VWS V14.00,2013-07-28 06:37:00,
2013-07-27 23:42:00,58.4,51.6,30.03,North,355,0.0,0.0,78,0.00,,---,0.00,VWS V14.00,2013-07-28 06:42:00,
2013-07-27 23:47:00,58.1,51.3,30.03,North,355,0.0,0.0,78,0.00,,---,0.00,VWS V14.00,2013-07-28 06:47:00,
2013-07-27 23:52:00,57.9,51.1,30.03,North,355,0.0,1.0,78,0.00,,---,0.00,VWS V14.00,2013-07-28 06:52:00,
2013-07-27 23:57:00,57.5,51.0,30.03,North,355,0.0,1.0,79,0.00,,---,0.00,VWS V14.00,2013-07-28 06:57:00,